When you browse on this site, cookies collect data to enhance your experience and personalize the content and advertising you see.
Visit our Privacy Policy to learn more. By continuing to use the site, you agree to this use of cookies and data.
  • In France
  • List of Countries
  • For 7 days
  • Water Temperature
  • Weather Map
  • Weather Widgets
  • user-avatar
    Login

    Hourly Weather Matlock

    Today, 16 September, Monday

    Time Temperature Precipitation Wind Pressure Humidity
    00:00 +14°C° 1.3 mm 1 mps 750 mmHg 95%
    01:00 +14°C° 0.1 mm 1 mps 750 mmHg 95%
    02:00 +13°C° 0.1 mm 1 mps 750 mmHg 94%
    03:00 +13°C° 0.1 mm 1 mps 749 mmHg 94%
    04:00 +13°C° 0 mm 1 mps 749 mmHg 93%
    05:00 +13°C° 0 mm 1 mps 749 mmHg 92%
    06:00 +13°C° 0 mm 1 mps 749 mmHg 91%
    07:00 +13°C° 0 mm 1 mps 749 mmHg 87%
    08:00 +14°C° 0 mm 1 mps 750 mmHg 84%
    09:00 +14°C° 0 mm 2 mps 750 mmHg 80%
    10:00 +15°C° 0 mm 1 mps 750 mmHg 76%
    11:00 +16°C° 0 mm 1 mps 750 mmHg 72%
    12:00 +16°C° 0 mm 1 mps 750 mmHg 68%
    13:00 +17°C° 0 mm 2 mps 750 mmHg 67%
    14:00 +17°C° 0 mm 2 mps 750 mmHg 66%
    15:00 +18°C° 0 mm 2 mps 750 mmHg 65%
    16:00 +16°C° 0 mm 2 mps 750 mmHg 69%
    17:00 +14°C° 0 mm 3 mps 750 mmHg 73%
    18:00 +13°C° 0 mm 3 mps 750 mmHg 77%
    19:00 +12°C° 0 mm 3 mps 751 mmHg 79%
    20:00 +12°C° 0 mm 2 mps 751 mmHg 82%
    21:00 +10°C° 0 mm 2 mps 752 mmHg 84%
    22:00 +9°C° 0 mm 2 mps 752 mmHg 85%
    23:00 +9°C° 0 mm 2 mps 752 mmHg 86%

    Tomorrow, 17 September, Tuesday

    Time Temperature Precipitation Wind Pressure Humidity
    00:00 +10°C° 0 mm 1 mps 752 mmHg 87%
    01:00 +9°C° 0 mm 1 mps 752 mmHg 88%
    02:00 +9°C° 0 mm 1 mps 752 mmHg 88%
    03:00 +9°C° 0 mm 1 mps 752 mmHg 89%
    04:00 +9°C° 0 mm 1 mps 752 mmHg 89%
    05:00 +9°C° 0 mm 1 mps 752 mmHg 89%
    06:00 +8°C° 0 mm 1 mps 752 mmHg 90%
    07:00 +9°C° 0 mm 2 mps 752 mmHg 83%
    08:00 +10°C° 0 mm 2 mps 753 mmHg 76%
    09:00 +12°C° 0 mm 3 mps 753 mmHg 69%
    10:00 +13°C° 0 mm 3 mps 753 mmHg 65%
    11:00 +14°C° 0 mm 3 mps 753 mmHg 62%
    12:00 +16°C° 0 mm 3 mps 753 mmHg 58%
    13:00 +16°C° 0 mm 3 mps 753 mmHg 57%
    14:00 +16°C° 0 mm 3 mps 753 mmHg 56%
    15:00 +16°C° 0 mm 2 mps 753 mmHg 55%
    16:00 +15°C° 0 mm 2 mps 753 mmHg 61%
    17:00 +14°C° 0 mm 2 mps 753 mmHg 66%
    18:00 +13°C° 0 mm 2 mps 753 mmHg 71%
    19:00 +10°C° 0 mm 2 mps 754 mmHg 73%
    20:00 +9°C° 0 mm 2 mps 754 mmHg 76%
    21:00 +8°C° 0 mm 2 mps 755 mmHg 78%
    22:00 +9°C° 0 mm 1 mps 755 mmHg 78%
    23:00 +8°C° 0 mm 1 mps 755 mmHg 78%

    Day after tomorrow, 18 September, Wednesday

    Time Temperature Precipitation Wind Pressure Humidity
    00:00 +8°C° 0 mm 1 mps 755 mmHg 78%
    01:00 +8°C° 0 mm 1 mps 755 mmHg 78%
    02:00 +8°C° 0 mm 1 mps 755 mmHg 78%
    03:00 +8°C° 0 mm 1 mps 755 mmHg 79%
    04:00 +7°C° 0 mm 1 mps 755 mmHg 80%
    05:00 +7°C° 0 mm 1 mps 755 mmHg 81%
    06:00 +7°C° 0 mm 1 mps 755 mmHg 82%
    07:00 +8°C° 0 mm 2 mps 755 mmHg 79%
    08:00 +10°C° 0 mm 2 mps 755 mmHg 76%
    09:00 +12°C° 0 mm 2 mps 755 mmHg 73%
    10:00 +14°C° 0 mm 2 mps 755 mmHg 70%
    11:00 +15°C° 0 mm 2 mps 755 mmHg 67%
    12:00 +17°C° 0 mm 3 mps 755 mmHg 63%
    13:00 +17°C° 0 mm 3 mps 755 mmHg 64%
    14:00 +17°C° 0 mm 3 mps 755 mmHg 64%
    15:00 +18°C° 0 mm 3 mps 754 mmHg 65%
    16:00 +16°C° 0 mm 3 mps 754 mmHg 70%
    17:00 +14°C° 0 mm 3 mps 754 mmHg 75%
    18:00 +13°C° 0 mm 3 mps 754 mmHg 79%
    19:00 +13°C° 0 mm 2 mps 755 mmHg 82%
    20:00 +12°C° 0 mm 2 mps 755 mmHg 84%
    21:00 +10°C° 0 mm 2 mps 755 mmHg 86%
    22:00 +11°C° 0 mm 1 mps 755 mmHg 87%
    23:00 +11°C° 0 mm 1 mps 755 mmHg 88%

    19 September, Thursday

    Time Temperature Precipitation Wind Pressure Humidity
    00:00 +11°C° 0 mm 1 mps 755 mmHg 90%
    01:00 +11°C° 0 mm 1 mps 755 mmHg 90%
    02:00 +11°C° 0 mm 1 mps 755 mmHg 90%
    03:00 +11°C° 0 mm 1 mps 755 mmHg 90%
    04:00 +11°C° 0 mm 1 mps 755 mmHg 91%
    05:00 +11°C° 0 mm 1 mps 755 mmHg 91%
    06:00 +11°C° 0 mm 1 mps 755 mmHg 91%
    07:00 +12°C° 0 mm 1 mps 756 mmHg 87%
    08:00 +14°C° 0 mm 1 mps 756 mmHg 83%
    09:00 +15°C° 0 mm 1 mps 756 mmHg 79%
    10:00 +16°C° 0 mm 1 mps 757 mmHg 75%
    11:00 +18°C° 0 mm 1 mps 757 mmHg 72%
    12:00 +19°C° 0 mm 1 mps 757 mmHg 69%
    13:00 +19°C° 0 mm 1 mps 756 mmHg 68%
    14:00 +19°C° 0 mm 1 mps 756 mmHg 68%
    15:00 +20°C° 0 mm 1 mps 756 mmHg 68%
    16:00 +19°C° 0 mm 1 mps 756 mmHg 71%
    17:00 +18°C° 0 mm 1 mps 756 mmHg 74%
    18:00 +18°C° 0 mm 1 mps 756 mmHg 77%
    19:00 +16°C° 0 mm 1 mps 756 mmHg 78%
    20:00 +16°C° 0 mm 1 mps 756 mmHg 79%
    21:00 +15°C° 0 mm 1 mps 756 mmHg 80%
    22:00 +15°C° 0 mm 1 mps 756 mmHg 82%
    23:00 +14°C° 0 mm 1 mps 756 mmHg 83%

    20 September, Friday

    Time Temperature Precipitation Wind Pressure Humidity
    00:00 +14°C° 0 mm 1 mps 756 mmHg 85%
    01:00 +14°C° 0 mm 1 mps 756 mmHg 87%
    02:00 +13°C° 0 mm 1 mps 756 mmHg 89%
    03:00 +13°C° 0 mm 1 mps 755 mmHg 91%
    04:00 +12°C° 0 mm 1 mps 755 mmHg 92%
    05:00 +12°C° 0 mm 1 mps 755 mmHg 93%
    06:00 +11°C° 0 mm 1 mps 754 mmHg 95%
    07:00 +12°C° 0 mm 2 mps 754 mmHg 89%
    08:00 +14°C° 0 mm 2 mps 754 mmHg 84%
    09:00 +15°C° 0 mm 2 mps 754 mmHg 79%
    10:00 +16°C° 0 mm 3 mps 754 mmHg 74%
    11:00 +17°C° 0 mm 3 mps 754 mmHg 68%
    12:00 +18°C° 0 mm 3 mps 754 mmHg 62%
    13:00 +18°C° 0 mm 4 mps 753 mmHg 61%
    14:00 +18°C° 0 mm 4 mps 752 mmHg 61%
    15:00 +19°C° 0 mm 4 mps 752 mmHg 60%
    16:00 +17°C° 0 mm 4 mps 751 mmHg 64%
    17:00 +16°C° 0 mm 3 mps 751 mmHg 68%
    18:00 +14°C° 0 mm 3 mps 750 mmHg 71%
    19:00 +13°C° 0 mm 4 mps 750 mmHg 71%
    20:00 +12°C° 0 mm 4 mps 750 mmHg 71%
    21:00 +11°C° 0 mm 4 mps 750 mmHg 70%
    22:00 +11°C° 0 mm 4 mps 749 mmHg 73%
    23:00 +10°C° 0 mm 3 mps 749 mmHg 76%

    21 September, Saturday

    Time Temperature Precipitation Wind Pressure Humidity
    00:00 +9°C° 0 mm 3 mps 748 mmHg 78%
    01:00 +9°C° 0 mm 3 mps 748 mmHg 80%
    02:00 +9°C° 0 mm 3 mps 747 mmHg 83%
    03:00 +9°C° 0 mm 3 mps 747 mmHg 85%
    04:00 +9°C° 0 mm 3 mps 746 mmHg 84%
    05:00 +9°C° 0 mm 3 mps 745 mmHg 84%
    06:00 +8°C° 0 mm 3 mps 745 mmHg 84%
    07:00 +10°C° 0 mm 4 mps 745 mmHg 78%
    08:00 +12°C° 0 mm 4 mps 744 mmHg 73%
    09:00 +13°C° 0 mm 5 mps 744 mmHg 67%
    10:00 +14°C° 0 mm 5 mps 744 mmHg 64%
    11:00 +16°C° 0 mm 5 mps 743 mmHg 61%
    12:00 +17°C° 0 mm 5 mps 743 mmHg 58%
    13:00 +19°C° 0 mm 5 mps 742 mmHg 58%
    14:00 +20°C° 0 mm 5 mps 742 mmHg 59%
    15:00 +21°C° 0 mm 5 mps 742 mmHg 60%
    16:00 +20°C° 0 mm 4 mps 741 mmHg 66%
    17:00 +19°C° 0 mm 4 mps 741 mmHg 72%
    18:00 +18°C° 0 mm 3 mps 741 mmHg 78%
    19:00 +17°C° 0.1 mm 3 mps 741 mmHg 81%
    20:00 +17°C° 0.1 mm 3 mps 741 mmHg 84%
    21:00 +16°C° 0.1 mm 3 mps 741 mmHg 87%
    22:00 +16°C° 0.5 mm 2 mps 740 mmHg 88%
    23:00 +16°C° 0.5 mm 2 mps 740 mmHg 89%
    Show more